When you browse on this site, cookies collect data to enhance your experience and personalize the content and advertising you see.
Visit our Privacy Policy to learn more. By continuing to use the site, you agree to this use of cookies and data.
  • In Lithuania
  • List of Countries
  • For 7 days
  • Water Temperature
  • Satellite Maps
  • Weather Map
  • Weather Widgets
  • user-avatar
    Login

    Hourly Weather Solden

    Today, 22 May, Wednesday

    Time Temperature Precipitation Wind Pressure Humidity
    00:00 -1°C° 0.2 mm 2 mps 580 mmHg 87%
    01:00 -1°C° 0 mm 2 mps 580 mmHg 87%
    02:00 -1°C° 0.1 mm 2 mps 580 mmHg 87%
    03:00 -2°C° 0.1 mm 2 mps 580 mmHg 87%
    04:00 -2°C° 0.1 mm 2 mps 580 mmHg 87%
    05:00 -1°C° 0.1 mm 2 mps 580 mmHg 85%
    06:00 +1°C° 0.1 mm 2 mps 581 mmHg 83%
    07:00 +3°C° 0.1 mm 2 mps 582 mmHg 80%
    08:00 +4°C° 0 mm 2 mps 583 mmHg 76%
    09:00 +6°C° 0 mm 2 mps 583 mmHg 71%
    10:00 +7°C° 0 mm 2 mps 584 mmHg 67%
    11:00 +9°C° 0.3 mm 1 mps 585 mmHg 65%
    12:00 +10°C° 0.3 mm 1 mps 585 mmHg 63%
    13:00 +11°C° 0.3 mm 1 mps 585 mmHg 61%
    14:00 +10°C° 0.5 mm 1 mps 585 mmHg 62%
    15:00 +10°C° 0.5 mm 1 mps 585 mmHg 64%
    16:00 +9°C° 0.5 mm 1 mps 585 mmHg 66%
    17:00 +8°C° 0.3 mm 1 mps 584 mmHg 70%
    18:00 +7°C° 0.3 mm 1 mps 584 mmHg 75%
    19:00 +6°C° 0.3 mm 1 mps 583 mmHg 80%
    20:00 +4°C° 0.1 mm 1 mps 583 mmHg 82%
    21:00 +2°C° 0.1 mm 2 mps 583 mmHg 85%
    22:00 +1°C° 0.1 mm 2 mps 582 mmHg 87%
    23:00 -1°C° 0 mm 2 mps 582 mmHg 88%

    Tomorrow, 23 May, Thursday

    Time Temperature Precipitation Wind Pressure Humidity
    00:00 -1°C° 0 mm 2 mps 582 mmHg 88%
    01:00 -2°C° 0 mm 2 mps 582 mmHg 89%
    02:00 -2°C° 0 mm 2 mps 582 mmHg 88%
    03:00 -2°C° 0 mm 2 mps 582 mmHg 88%
    04:00 -3°C° 0 mm 2 mps 582 mmHg 88%
    05:00 -1°C° 0 mm 2 mps 582 mmHg 84%
    06:00 +1°C° 0 mm 2 mps 583 mmHg 80%
    07:00 +4°C° 0 mm 1 mps 584 mmHg 76%
    08:00 +6°C° 0 mm 1 mps 585 mmHg 70%
    09:00 +8°C° 0 mm 1 mps 585 mmHg 65%
    10:00 +10°C° 0 mm 1 mps 586 mmHg 59%
    11:00 +11°C° 0 mm 1 mps 587 mmHg 56%
    12:00 +12°C° 0 mm 1 mps 587 mmHg 52%
    13:00 +13°C° 0 mm 1 mps 587 mmHg 49%
    14:00 +13°C° 0 mm 1 mps 587 mmHg 49%
    15:00 +12°C° 0 mm 1 mps 586 mmHg 49%
    16:00 +12°C° 0 mm 1 mps 586 mmHg 48%
    17:00 +10°C° 0 mm 1 mps 585 mmHg 54%
    18:00 +9°C° 0 mm 1 mps 584 mmHg 61%
    19:00 +7°C° 0 mm 1 mps 584 mmHg 67%
    20:00 +5°C° 0 mm 1 mps 583 mmHg 71%
    21:00 +4°C° 0 mm 1 mps 583 mmHg 74%
    22:00 +1°C° 0 mm 2 mps 582 mmHg 78%
    23:00 +2°C° 0 mm 1 mps 582 mmHg 79%

    Day after tomorrow, 24 May, Friday

    Time Temperature Precipitation Wind Pressure Humidity
    00:00 +1°C° 0 mm 1 mps 582 mmHg 79%
    01:00 +1°C° 0 mm 1 mps 581 mmHg 80%
    02:00 +1°C° 0 mm 1 mps 581 mmHg 80%
    03:00 +1°C° 0 mm 1 mps 581 mmHg 80%
    04:00 0°C° 0 mm 1 mps 581 mmHg 80%
    05:00 +2°C° 0 mm 1 mps 582 mmHg 74%
    06:00 +3°C° 0 mm 0 mps 583 mmHg 68%
    07:00 +5°C° 0 mm 0 mps 583 mmHg 63%
    08:00 +7°C° 0 mm 0 mps 584 mmHg 56%
    09:00 +9°C° 0 mm 0 mps 585 mmHg 50%
    10:00 +12°C° 0 mm 1 mps 586 mmHg 44%
    11:00 +12°C° 0 mm 1 mps 586 mmHg 42%
    12:00 +13°C° 0 mm 1 mps 586 mmHg 41%
    13:00 +14°C° 0 mm 1 mps 586 mmHg 39%
    14:00 +14°C° 0.1 mm 1 mps 586 mmHg 42%
    15:00 +13°C° 0.1 mm 1 mps 585 mmHg 44%
    16:00 +13°C° 0.1 mm 2 mps 585 mmHg 47%
    17:00 +11°C° 0.4 mm 1 mps 584 mmHg 56%
    18:00 +9°C° 0.4 mm 1 mps 583 mmHg 66%
    19:00 +8°C° 0.4 mm 1 mps 582 mmHg 75%
    20:00 +6°C° 0.2 mm 1 mps 582 mmHg 81%
    21:00 +5°C° 0.2 mm 1 mps 582 mmHg 87%
    22:00 +3°C° 0.2 mm 0 mps 581 mmHg 93%
    23:00 +2°C° 0 mm 0 mps 581 mmHg 93%

    25 May, Saturday

    Time Temperature Precipitation Wind Pressure Humidity
    00:00 +2°C° 0 mm 0 mps 581 mmHg 93%
    01:00 +1°C° 0 mm 0 mps 580 mmHg 93%
    02:00 +1°C° 0 mm 0 mps 580 mmHg 93%
    03:00 +2°C° 0 mm 1 mps 580 mmHg 92%
    04:00 +2°C° 0 mm 1 mps 580 mmHg 92%
    05:00 +2°C° 0.1 mm 0 mps 581 mmHg 86%
    06:00 +4°C° 0.1 mm 0 mps 582 mmHg 80%
    07:00 +5°C° 0.1 mm 0 mps 583 mmHg 74%
    08:00 +7°C° 0.2 mm 0 mps 583 mmHg 67%
    09:00 +9°C° 0.2 mm 1 mps 584 mmHg 61%
    10:00 +11°C° 0.2 mm 1 mps 585 mmHg 54%
    11:00 +11°C° 0.3 mm 1 mps 585 mmHg 54%
    12:00 +10°C° 0.3 mm 2 mps 585 mmHg 53%
    13:00 +12°C° 0.3 mm 2 mps 585 mmHg 53%
    14:00 +10°C° 0.7 mm 2 mps 585 mmHg 57%
    15:00 +10°C° 0.7 mm 2 mps 585 mmHg 61%
    16:00 +9°C° 0.7 mm 2 mps 584 mmHg 66%
    17:00 +9°C° 1.4 mm 1 mps 584 mmHg 72%
    18:00 +8°C° 1.4 mm 1 mps 584 mmHg 79%
    19:00 +7°C° 1.4 mm 1 mps 583 mmHg 85%
    20:00 +5°C° 1.9 mm 0 mps 583 mmHg 88%
    21:00 +4°C° 1.9 mm 0 mps 583 mmHg 91%
    22:00 +4°C° 1.9 mm 0 mps 583 mmHg 95%
    23:00 +3°C° 1.4 mm 0 mps 583 mmHg 94%

    26 May, Sunday

    Time Temperature Precipitation Wind Pressure Humidity
    00:00 +3°C° 1.4 mm 0 mps 583 mmHg 94%
    01:00 +4°C° 1.4 mm 1 mps 583 mmHg 94%
    02:00 +4°C° 0.4 mm 1 mps 582 mmHg 94%
    03:00 +3°C° 0.4 mm 1 mps 582 mmHg 94%
    04:00 +3°C° 0.4 mm 1 mps 582 mmHg 94%
    05:00 +4°C° 0.1 mm 1 mps 582 mmHg 90%
    06:00 +6°C° 0.1 mm 1 mps 583 mmHg 86%
    07:00 +7°C° 0.1 mm 1 mps 584 mmHg 82%
    08:00 +9°C° 0.1 mm 1 mps 585 mmHg 74%
    09:00 +10°C° 0.1 mm 1 mps 586 mmHg 66%
    10:00 +12°C° 0.1 mm 1 mps 586 mmHg 58%
    11:00 +13°C° 0.4 mm 1 mps 586 mmHg 57%
    12:00 +13°C° 0.4 mm 1 mps 586 mmHg 55%
    13:00 +14°C° 0.4 mm 1 mps 586 mmHg 54%
    14:00 +13°C° 0.7 mm 1 mps 586 mmHg 57%
    15:00 +13°C° 0.7 mm 1 mps 586 mmHg 60%
    16:00 +12°C° 0.7 mm 1 mps 585 mmHg 63%
    17:00 +11°C° 1 mm 1 mps 585 mmHg 69%
    18:00 +10°C° 1 mm 1 mps 584 mmHg 76%
    19:00 +8°C° 1 mm 1 mps 584 mmHg 83%
    20:00 +7°C° 0.6 mm 1 mps 583 mmHg 87%
    21:00 +6°C° 0.6 mm 1 mps 583 mmHg 90%
    22:00 +5°C° 0.6 mm 1 mps 583 mmHg 94%
    23:00 +4°C° 0.2 mm 1 mps 582 mmHg 94%

    27 May, Monday

    Time Temperature Precipitation Wind Pressure Humidity
    00:00 +4°C° 0.2 mm 1 mps 582 mmHg 94%
    01:00 +4°C° 0.2 mm 1 mps 582 mmHg 95%
    02:00 +4°C° 0.2 mm 1 mps 581 mmHg 94%
    03:00 +4°C° 0.2 mm 1 mps 581 mmHg 94%
    04:00 +3°C° 0.2 mm 1 mps 581 mmHg 94%
    05:00 +3°C° 0.1 mm 0 mps 581 mmHg 90%
    06:00 +5°C° 0.1 mm 0 mps 582 mmHg 87%
    07:00 +6°C° 0.1 mm 0 mps 582 mmHg 83%
    08:00 +7°C° 0 mm 0 mps 583 mmHg 75%
    09:00 +9°C° 0 mm 0 mps 584 mmHg 68%
    10:00 +11°C° 0 mm 1 mps 584 mmHg 61%
    11:00 +12°C° 0.2 mm 1 mps 584 mmHg 59%
    12:00 +13°C° 0.2 mm 1 mps 584 mmHg 56%
    13:00 +13°C° 0.2 mm 1 mps 584 mmHg 54%
    14:00 +13°C° 1 mm 1 mps 583 mmHg 61%
    15:00 +12°C° 1 mm 1 mps 583 mmHg 67%
    16:00 +10°C° 1 mm 2 mps 582 mmHg 74%
    17:00 +10°C° 1.4 mm 1 mps 582 mmHg 79%
    18:00 +9°C° 1.4 mm 1 mps 581 mmHg 84%
    19:00 +8°C° 1.4 mm 1 mps 581 mmHg 89%
    20:00 +7°C° 0.7 mm 1 mps 581 mmHg 90%
    21:00 +6°C° 0.7 mm 1 mps 581 mmHg 91%
    22:00 +5°C° 0.7 mm 1 mps 580 mmHg 93%
    23:00 +5°C° 0.3 mm 1 mps 580 mmHg 93%
    Show more